1511625600.74,38274,7.81,72710.5,-3.65,-5.73,-5.61,0,*59
1511625602.02,38275,7.81,72712.5,-3.67,-5.77,-5.77,0,*59
1511625603.25,38276,7.81,72718.3,-3.65,-5.31,-5.47,0,*59
1511625604.5,38277,7.81,72700.8,-3.65,-5.11,-5.11,0,*59
1511625605.75,38278,7.81,72678.3,-3.65,-5.11,-5.11,0,*56
1511625607.0,38279,7.81,72718.5,-3.67,-4.99,-4.85,0,*58
1511625608.24,38280,7.81,72728.0,-3.65,-4.85,-4.81,0,*55
1511625609.52,38281,7.81,72680.5,-3.67,-4.85,-4.85,0,*52
1511625610.79,38282,7.81,72694.3,-3.67,-4.85,-4.93,0,*56
1511625612.06,38283,7.81,72726.8,-3.67,-4.85,-4.69,0,*52
1511625613.29,38284,7.81,72736.3,-3.67,-4.61,-4.61,0,*57
1511625614.49,38285,7.81,72744.0,-3.65,-4.61,-4.57,0,*51
1511625615.69,38286,7.81,72746.0,-3.65,-4.61,-4.57,0,*52
1511625616.92,38287,7.81,72794.0,-3.67,-4.57,-4.49,0,*5B
1511625618.17,38288,7.81,72708.8,-3.65,-4.69,-4.73,0,*52
1511625619.43,38289,7.81,72666.5,-3.65,-5.07,-5.07,0,*58
1511625620.69,38290,7.81,72646.8,-3.67,-5.35,-5.23,0,*55
1511625621.96,38291,7.81,72666.8,-3.67,-5.19,-5.11,0,*5B
1511625623.22,38292,7.81,72646.8,-3.65,-5.19,-5.11,0,*5A
1511625624.48,38293,7.81,72658.3,-3.65,-5.07,-5.19,0,*5C
1511625625.74,38294,7.81,72682.8,-3.65,-5.31,-5.31,0,*54
1511625627.02,38295,7.81,72702.3,-3.67,-5.23,-5.23,0,*57
1511625628.31,38296,7.81,72696.5,-3.67,-5.23,-5.23,0,*54
1511625629.56,38297,7.81,72702.5,-3.67,-5.07,-4.99,0,*53
1511625630.84,38298,7.81,72712.5,-3.67,-4.73,-4.81,0,*57
1511625632.11,38299,7.81,72714.3,-3.67,-4.73,-4.73,0,*5B
1511625633.38,38300,7.81,72712.8,-3.67,-4.81,-4.73,0,*57
1511625634.63,38301,7.81,72718.0,-3.65,-4.81,-4.69,0,*5F
1511625635.88,38302,7.81,72698.0,-3.65,-4.73,-4.73,0,*5A
1511625637.13,38303,7.81,72704.0,-3.65,-4.81,-4.81,0,*5B
1511625638.37,38304,7.81,72714.8,-3.65,-4.73,-4.73,0,*5C
1511625639.62,38305,7.81,72734.8,-3.65,-4.69,-4.69,0,*5D
1511625640.82,38306,7.81,72722.8,-3.65,-4.61,-4.57,0,*5B
1511625642.02,38307,7.81,72728.8,-3.65,-4.61,-4.49,0,*55
1511625643.22,38308,7.81,72732.5,-3.65,-4.61,-4.57,0,*55
1511625644.43,38309,7.81,72728.8,-3.65,-4.61,-4.61,0,*51
1511625645.68,38310,7.81,72726.0,-3.65,-4.73,-4.69,0,*52
1511625646.92,38311,7.81,72716.3,-3.61,-4.77,-4.77,0,*5C
1511625648.14,38312,7.81,72708.5,-3.65,-4.99,-4.93,0,*51
1511625649.4,38313,7.81,72692.8,-3.65,-5.07,-5.07,0,*5A
1511625650.65,38314,7.81,72706.3,-3.65,-5.11,-5.07,0,*5A
1511625651.9,38315,7.81,72710.8,-3.65,-5.11,-5.19,0,*54
1511625653.16,38316,7.81,72706.0,-3.65,-5.19,-5.19,0,*5F
1511625654.41,38317,7.81,72696.8,-3.65,-5.19,-5.19,0,*5E
1511625655.62,38318,7.81,72740.8,-3.61,-5.43,-5.55,0,*52
1511625656.82,38319,7.81,72748.5,-3.61,-5.55,-5.97,0,*5A
1511625658.07,38320,7.81,72764.0,-3.65,-5.61,-5.77,0,*5D
1511625659.29,38321,7.81,72770.8,-3.65,-5.89,-6.09,0,*50
1511625660.49,38322,7.81,72786.0,-3.65,-6.01,-6.39,0,*53
1511625661.74,38323,7.81,72786.0,-3.67,-6.89,-6.93,0,*50
1511625662.99,38324,7.81,72776.0,-3.67,-7.69,-6.43,0,*55
1511625664.2,38325,7.81,72768.8,-3.65,-5.97,-5.47,0,*52
1511625665.42,38326,7.81,72760.8,-3.65,-5.35,-5.11,0,*5A
1511625666.67,38327,7.81,72746.0,-3.65,-4.85,-4.73,0,*54
1511625667.92,38328,7.81,72744.3,-3.65,-4.73,-4.69,0,*59
1511625669.12,38329,7.81,72706.5,-3.65,-4.61,-4.57,0,*56
1511625670.33,38330,7.81,72688.3,-3.65,-4.57,-4.57,0,*5B
1511625671.53,38331,7.81,72686.3,-3.61,-4.65,-4.65,0,*5E
1511625672.78,38332,7.81,72654.5,-3.61,-4.89,-4.89,0,*5D
1511625674.03,38333,7.81,72588.8,-3.61,-4.81,-4.69,0,*5A
1511625675.27,38334,7.81,72576.3,-3.65,-4.85,-4.81,0,*5B
1511625676.54,38335,7.81,72572.8,-3.65,-5.07,-5.07,0,*5E
1511625677.76,38336,7.81,72588.5,-3.65,-5.07,-4.99,0,*5B
1511625679.01,38337,7.81,72630.5,-3.67,-4.99,-4.85,0,*53
1511625680.24,38338,7.81,72644.0,-3.65,-4.73,-4.61,0,*50
1511625681.48,38339,7.81,72634.0,-3.65,-4.85,-4.81,0,*56
1511625682.73,38340,7.81,72626.0,-3.65,-4.81,-4.69,0,*5A
1511625683.93,38341,7.81,72612.8,-3.65,-4.57,-4.49,0,*52
1511625685.12,38342,7.81,72576.0,-3.65,-4.45,-4.45,0,*5E
1511625686.37,38343,7.81,72606.5,-3.65,-4.73,-4.69,0,*54
1511625687.62,38344,7.81,72636.5,-3.65,-5.07,-4.93,0,*54
1511625688.87,38345,7.81,72650.8,-3.65,-4.81,-4.73,0,*54
1511625690.07,38346,7.81,72676.8,-3.65,-4.21,-4.17,0,*5F
1511625691.28,38347,7.81,72660.5,-3.61,-4.41,-4.53,0,*5C
1511625692.53,38348,7.81,72706.5,-3.61,-4.81,-5.03,0,*5B
1511625693.73,38349,7.81,72630.0,-3.61,-4.25,-4.05,0,*53
1511625694.93,38350,7.81,72584.3,-3.61,-4.13,-4.13,0,*59
1511625696.14,38351,7.81,72652.3,-3.61,-4.61,-4.65,0,*5C
1511625697.34,38352,7.81,72666.8,-3.61,-4.65,-4.65,0,*5B
1511625698.56,38353,7.81,72636.3,-3.59,-4.41,-4.41,0,*51
1511625699.79,38354,7.81,72628.3,-3.59,-4.65,-4.61,0,*52
1511625701.05,38355,7.81,72624.0,-3.59,-4.85,-4.73,0,*5E
1511625702.27,38356,7.81,72674.0,-3.61,-4.69,-4.65,0,*53
1511625703.47,38357,7.81,72728.8,-3.61,-4.53,-4.57,0,*5A
1511625704.68,38358,7.81,72716.3,-3.61,-4.65,-4.57,0,*50
1511625705.9,38359,7.81,72668.0,-3.59,-4.53,-4.65,0,*5E
1511625707.14,38360,7.81,72660.3,-3.61,-4.69,-4.69,0,*5A
1511625708.39,38361,7.81,72606.0,-3.61,-4.81,-4.81,0,*5B
1511625709.62,38362,7.81,72548.5,-3.61,-4.89,-4.65,0,*5A
1511625710.9,38363,7.81,72666.3,-3.59,-5.03,-4.81,0,*59
1511625712.12,38364,7.81,72662.8,-3.59,-4.65,-4.53,0,*50
1511625713.35,38365,7.81,72702.0,-3.59,-4.33,-4.25,0,*53
1511625714.57,38366,7.81,72674.3,-3.59,-4.37,-4.41,0,*56
1511625715.79,38367,7.81,72648.0,-3.59,-4.49,-4.41,0,*5E
1511625716.99,38368,7.81,72660.5,-3.57,-4.65,-4.61,0,*53
1511625718.22,38369,7.81,72650.8,-3.59,-4.65,-4.53,0,*5D
1511625719.44,38370,7.81,72674.3,-3.57,-4.73,-4.61,0,*5D
1511625720.69,38371,7.81,72646.3,-3.57,-4.73,-4.73,0,*5F
1511625721.96,38372,7.81,72644.5,-3.59,-4.77,-4.85,0,*5F
1511625723.17,38373,7.81,72642.8,-3.59,-4.99,-4.99,0,*53
1511625724.43,38374,7.81,72646.0,-3.59,-5.55,-5.65,0,*57
1511625725.71,38375,7.81,72614.0,-3.59,-5.23,-5.23,0,*55
1511625726.97,38376,7.81,72640.8,-3.61,-5.03,-5.27,0,*5B
1511625728.22,38377,7.81,72616.0,-3.59,-4.73,-4.99,0,*53
1511625729.44,38378,7.81,72610.3,-3.61,-4.99,-5.11,0,*52
1511625730.69,38379,7.81,72620.5,-3.61,-4.89,-4.89,0,*52
1511625731.96,38380,7.81,72626.3,-3.59,-4.77,-4.73,0,*5B
1511625733.18,38381,7.81,72630.5,-3.59,-4.65,-4.65,0,*5E
1511625734.41,38382,7.81,72636.3,-3.59,-4.61,-4.65,0,*59
1511625735.63,38383,7.81,72644.3,-3.59,-4.53,-4.53,0,*5C
1511625736.83,38384,7.81,72666.5,-3.61,-4.53,-4.53,0,*50
1511625738.06,38385,7.81,72676.8,-3.59,-4.61,-4.53,0,*5B
1511625739.28,38386,7.81,72676.3,-3.59,-4.53,-4.61,0,*58
1511625740.5,38387,7.81,72692.3,-3.59,-4.61,-4.65,0,*5C
1511625741.78,38388,7.81,72696.0,-3.59,-4.89,-4.77,0,*56
1511625743.0,38389,7.81,72714.3,-3.57,-4.99,-4.85,0,*55
1511625744.27,38390,7.81,72732.8,-3.59,-5.03,-4.77,0,*5C
1511625745.52,38391,7.81,72660.3,-3.59,-5.27,-4.99,0,*5B
1511625746.8,38392,7.81,72692.3,-3.59,-5.15,-5.03,0,*5B
1511625748.05,38393,7.81,72666.3,-3.59,-4.99,-4.85,0,*50
1511625749.3,38394,7.81,72658.8,-3.59,-4.73,-4.65,0,*5D
1511625750.56,38395,7.81,72620.0,-3.59,-4.73,-4.73,0,*5B
1511625751.81,38396,7.81,72668.5,-3.57,-4.77,-4.73,0,*52
1511625753.03,38397,7.81,72712.0,-3.59,-4.65,-4.61,0,*5D
1511625754.24,38398,7.81,72694.5,-3.57,-4.65,-4.53,0,*5D
1511625755.46,38399,7.81,72642.5,-3.59,-4.61,-4.65,0,*53
1511625756.71,38400,7.81,72630.5,-3.61,-4.69,-4.69,0,*5B
1511625757.93,38401,7.81,72654.8,-3.59,-4.65,-4.61,0,*55
1511625759.13,38402,7.81,72702.3,-3.57,-4.61,-4.53,0,*5D
1511625760.35,38403,7.81,72720.8,-3.59,-4.49,-4.41,0,*5B
1511625761.57,38404,7.81,72708.0,-3.59,-4.49,-4.49,0,*54
1511625762.82,38405,7.81,72704.5,-3.59,-4.73,-4.65,0,*52
1511625764.05,38406,7.81,72662.5,-3.57,-4.65,-4.73,0,*5F
1511625765.29,38407,7.81,72560.8,-3.59,-4.65,-4.73,0,*50
1511625766.54,38408,7.81,72632.5,-3.59,-4.99,-4.89,0,*59
1511625767.79,38409,7.81,72656.8,-3.57,-4.85,-4.85,0,*57
1511625769.03,38410,7.81,72660.5,-3.61,-4.81,-4.81,0,*5A
1511625770.26,38411,7.81,72614.3,-3.59,-4.41,-4.41,0,*50
1511625771.52,38412,7.81,72646.5,-3.59,-4.73,-4.77,0,*57
1511625772.79,38413,7.81,72674.8,-3.59,-4.77,-4.73,0,*56
1511625774.01,38414,7.81,72660.8,-3.59,-4.61,-4.61,0,*55
1511625775.28,38415,7.81,72654.3,-3.59,-4.85,-4.85,0,*54
1511625776.56,38416,7.81,72682.5,-3.59,-5.03,-5.11,0,*54
1511625777.83,38417,7.81,72726.8,-3.59,-4.77,-4.73,0,*52
1511625779.07,38418,7.81,72738.5,-3.59,-4.77,-4.65,0,*5A
1511625780.35,38419,7.81,72712.0,-3.59,-5.23,-4.89,0,*59
1511625781.6,38420,7.81,72696.0,-3.59,-4.77,-4.65,0,*51
1511625782.78,38421,7.81,72700.0,-3.61,-4.45,-4.45,0,*58
1511625784.01,38422,7.81,72764.0,-3.59,-4.61,-4.61,0,*50
1511625785.21,38423,7.81,72754.5,-3.57,-4.61,-4.53,0,*5E
1511625786.44,38424,7.81,72708.5,-3.59,-4.61,-4.61,0,*56
1511625787.66,38425,7.81,72746.3,-3.59,-4.53,-4.53,0,*57
1511625788.88,38426,7.81,72740.8,-3.59,-4.53,-4.49,0,*5F
1511625790.1,38427,7.81,72768.3,-3.59,-4.41,-4.41,0,*55
1511625791.3,38428,7.81,72736.5,-3.61,-4.45,-4.41,0,*55
1511625792.52,38429,7.81,72726.3,-3.61,-4.65,-4.69,0,*5C
1511625793.75,38430,7.81,72718.3,-3.59,-4.61,-4.61,0,*53
1511625795.0,38431,7.81,72706.0,-3.59,-4.73,-4.61,0,*51
1511625796.22,38432,7.81,72678.5,-3.59,-4.65,-4.61,0,*55
1511625797.46,38433,7.81,72670.5,-3.61,-4.77,-4.69,0,*54
1511625798.73,38434,7.81,72664.5,-3.59,-4.77,-4.73,0,*53
1511625800.0,38435,7.81,72672.3,-3.59,-4.77,-4.73,0,*52
1511625801.26,38436,7.81,72666.3,-3.59,-4.77,-4.77,0,*55
1511625802.53,38437,7.81,72694.3,-3.59,-4.85,-4.85,0,*54
1511625803.79,38438,7.81,72704.3,-3.59,-4.77,-4.77,0,*5B
1511625805.02,38439,7.81,72706.5,-3.59,-4.65,-4.65,0,*5A
1511625806.22,38440,7.81,72718.8,-3.61,-4.65,-4.65,0,*5F
1511625807.45,38441,7.81,72706.8,-3.59,-4.65,-4.65,0,*55
1511625808.69,38442,7.81,72638.5,-3.61,-4.77,-4.77,0,*5D
1511625809.95,38443,7.81,72660.0,-3.59,-4.77,-4.73,0,*53
1511625811.2,38444,7.81,72638.8,-3.59,-4.99,-4.89,0,*51
1511625812.46,38445,7.81,72610.8,-3.61,-5.03,-4.89,0,*59
1511625813.72,38446,7.81,72616.3,-3.61,-5.15,-5.03,0,*5E
1511625814.94,38447,7.81,72622.8,-3.61,-5.35,-5.31,0,*5C
1511625816.2,38448,7.75,72616.5,-3.61,-5.81,-5.69,0,*51
1511625817.45,38449,7.81,72622.8,-3.61,-5.69,-5.69,0,*56
1511625818.65,38450,7.81,72638.3,-3.61,-5.43,-5.47,0,*5A
1511625819.9,38451,7.81,72608.0,-3.61,-5.19,-5.19,0,*5F
1511625821.16,38452,7.81,72610.5,-3.61,-5.15,-5.15,0,*5C
1511625822.42,38453,7.81,72656.5,-3.61,-5.07,-5.07,0,*5D
1511625823.66,38454,7.81,72708.0,-3.61,-4.69,-4.69,0,*5A
1511625824.91,38455,7.81,72702.5,-3.65,-4.73,-4.73,0,*5F
1511625826.16,38456,7.81,72638.0,-3.65,-5.07,-5.11,0,*5B
1511625827.42,38457,7.81,72658.5,-3.65,-5.07,-5.19,0,*52
1511625828.67,38458,7.81,72740.8,-3.65,-4.85,-4.73,0,*5B
1511625829.91,38459,7.81,72670.8,-3.65,-4.73,-4.73,0,*53
1511625831.16,38460,7.81,72730.0,-3.67,-4.69,-4.61,0,*53
1511625832.38,38461,7.81,72722.0,-3.59,-4.49,-4.41,0,*5F
1511625833.58,38462,7.81,72688.3,-3.61,-4.53,-4.53,0,*5F
1511625834.8,38463,7.81,72652.3,-3.61,-4.69,-4.65,0,*52
1511625836.05,38464,7.81,72674.8,-3.61,-4.89,-4.89,0,*59
1511625837.31,38465,7.81,72700.3,-3.61,-5.03,-5.03,0,*58
1511625838.56,38466,7.81,72692.8,-3.59,-4.89,-4.99,0,*51
1511625839.83,38467,7.81,72698.3,-3.59,-4.89,-4.89,0,*51
1511625841.07,38468,7.81,72678.5,-3.61,-4.77,-4.77,0,*55
1511625842.32,38469,7.81,72698.8,-3.61,-4.81,-4.89,0,*5C
1511625843.57,38470,7.81,72704.0,-3.61,-4.81,-4.89,0,*54
1511625844.82,38471,7.81,72722.5,-3.61,-4.81,-4.81,0,*5D
1511625846.06,38472,7.81,72726.3,-3.59,-4.77,-4.65,0,*56
1511625847.28,38473,7.81,72710.3,-3.61,-4.69,-4.57,0,*52
1511625848.5,38474,7.81,72710.5,-3.59,-4.53,-4.49,0,*58
1511625849.7,38475,7.81,72698.8,-3.61,-4.49,-4.49,0,*59
1511625850.9,38476,7.75,72694.0,-3.61,-4.65,-4.57,0,*5B
1511625852.12,38477,7.81,72706.5,-3.59,-4.53,-4.53,0,*50
1511625853.33,38478,7.81,72704.3,-3.61,-4.57,-4.65,0,*55
1511625854.57,38479,7.81,72766.0,-3.61,-4.69,-4.69,0,*55
1511625855.8,38480,7.81,72752.8,-3.59,-4.61,-4.61,0,*58
1511625857.0,38481,7.81,72704.8,-3.61,-4.65,-4.49,0,*5C
1511625858.2,38482,7.81,72688.5,-3.61,-4.57,-4.57,0,*51
1511625859.4,38483,7.81,72698.0,-3.61,-4.53,-4.57,0,*54
1511625860.62,38484,7.81,72688.5,-3.61,-4.69,-4.65,0,*5B
1511625861.86,38485,7.75,72652.3,-3.61,-4.77,-4.77,0,*56
1511625863.11,38486,7.75,72722.3,-3.61,-4.81,-4.81,0,*55
1511625864.36,38487,7.81,72758.0,-3.61,-4.69,-4.69,0,*54
1511625865.56,38488,7.81,72766.5,-3.61,-4.57,-4.53,0,*5F
1511625866.76,38489,7.81,72692.5,-3.61,-4.45,-4.53,0,*5D
1511625868.0,38490,7.75,72652.5,-3.61,-4.81,-4.77,0,*5B
1511625869.25,38491,7.81,72686.3,-3.61,-4.89,-4.89,0,*53
1511625870.51,38492,7.81,72670.5,-3.61,-5.03,-4.93,0,*58
1511625871.75,38493,7.75,72688.8,-3.61,-4.93,-5.03,0,*59
1511625873.0,38494,7.75,72720.8,-3.61,-4.81,-4.81,0,*56
1511625874.23,38495,7.75,72672.3,-3.59,-4.61,-4.65,0,*58
1511625875.47,38496,7.75,72700.3,-3.61,-4.69,-4.69,0,*54
1511625876.74,38497,7.81,72702.5,-3.59,-4.85,-4.85,0,*5E
1511625878.0,38498,7.81,72680.3,-3.61,-5.03,-5.03,0,*5A
1511625879.25,38499,7.75,72726.8,-3.61,-4.89,-4.77,0,*5A
1511625880.47,38500,7.81,72734.8,-3.59,-4.53,-4.53,0,*51
1511625881.7,38501,7.81,72748.5,-3.59,-4.61,-4.61,0,*50
1511625882.92,38502,7.75,72740.5,-3.59,-4.53,-4.61,0,*52
1511625884.12,38503,7.75,72752.5,-3.61,-4.65,-4.57,0,*58
1511625885.34,38504,7.75,72726.8,-3.61,-4.69,-4.65,0,*52
1511625886.57,38505,7.81,72770.5,-3.59,-4.61,-4.61,0,*54
1511625887.77,38506,7.75,72744.3,-3.61,-4.57,-4.65,0,*5D
1511625888.98,38507,7.75,72746.5,-3.61,-4.57,-4.53,0,*59
1511625890.2,38508,7.75,72748.0,-3.59,-4.49,-4.53,0,*52
1511625891.4,38509,7.75,72762.0,-3.61,-4.53,-4.53,0,*53
1511625892.62,38510,7.81,72744.8,-3.59,-4.53,-4.61,0,*51
1511625893.83,38511,7.75,72718.8,-3.57,-4.65,-4.61,0,*5B
1511625895.03,38512,7.81,72726.5,-3.61,-4.65,-4.65,0,*59
1511625896.25,38513,7.81,72706.0,-3.57,-4.73,-4.65,0,*5A
1511625897.52,38514,7.81,72694.0,-3.59,-4.73,-4.77,0,*50
1511625898.74,38515,7.75,72718.5,-3.59,-4.53,-4.61,0,*54
1511625899.99,38516,7.81,72704.0,-3.59,-4.73,-4.65,0,*51
1511625901.19,38517,7.75,72708.3,-3.57,-4.53,-4.53,0,*59
1511625902.41,38518,7.75,72698.5,-3.59,-4.49,-4.49,0,*58
1511625903.64,38519,7.75,72716.5,-3.59,-4.61,-4.61,0,*59
1511625904.86,38520,7.81,72710.0,-3.59,-4.61,-4.65,0,*57
1511625906.09,38521,7.81,72680.0,-3.59,-4.53,-4.53,0,*52
1511625907.31,38522,7.75,72710.3,-3.59,-4.61,-4.61,0,*51
1511625908.53,38523,7.75,72636.3,-3.59,-4.49,-4.49,0,*50
1511625909.75,38524,7.81,72650.3,-3.59,-4.41,-4.49,0,*5F
1511625910.98,38525,7.75,72650.5,-3.59,-4.33,-4.37,0,*52
1511625912.23,38526,7.81,72614.0,-3.59,-4.09,-4.01,0,*5D
1511625913.43,38527,7.75,72648.8,-3.57,-4.53,-4.49,0,*51
1511625914.63,38528,7.75,72608.0,-3.57,-4.53,-4.53,0,*55
1511625915.83,38529,7.75,72560.5,-3.57,-4.61,-4.61,0,*54
1511625917.05,38530,7.75,72608.3,-3.55,-4.57,-4.61,0,*5B
1511625918.3,38531,7.75,72540.0,-3.57,-4.85,-4.89,0,*51
1511625919.55,38532,7.75,72604.3,-3.57,-4.85,-4.85,0,*5E
1511625920.79,38533,7.75,72660.8,-3.59,-4.65,-4.73,0,*56
1511625922.02,38534,7.81,72682.3,-3.59,-4.61,-4.61,0,*56
1511625923.25,38535,7.81,72698.3,-3.59,-4.61,-4.61,0,*57
1511625924.47,38536,7.75,72672.0,-3.59,-4.53,-4.53,0,*54
1511625925.67,38537,7.75,72664.3,-3.61,-4.57,-4.65,0,*5F
1511625926.87,38538,7.81,72660.8,-3.57,-4.53,-4.53,0,*54
1511625928.06,38539,7.81,72668.3,-3.61,-4.45,-4.45,0,*50
1511625929.29,38540,7.75,72668.3,-3.59,-4.41,-4.41,0,*55
1511625930.51,38541,7.75,72682.3,-3.59,-4.41,-4.41,0,*54
1511625931.71,38542,7.81,72734.5,-3.57,-4.49,-4.41,0,*51
1511625932.91,38543,7.75,72742.8,-3.57,-4.41,-4.37,0,*59
1511625934.1,38544,7.75,72652.0,-3.57,-4.49,-4.49,0,*5F
1511625935.3,38545,7.75,72626.8,-3.57,-4.61,-4.49,0,*54
1511625936.53,38546,7.75,72610.0,-3.59,-4.53,-4.53,0,*53
1511625937.75,38547,7.75,72606.5,-3.59,-4.41,-4.41,0,*52
1511625938.97,38548,7.75,72562.8,-3.59,-4.41,-4.41,0,*5D
1511625940.17,38549,7.75,72590.3,-3.57,-4.61,-4.61,0,*52
1511625941.37,38550,7.75,72566.3,-3.57,-4.53,-4.61,0,*5B
1511625942.6,38551,7.75,72582.8,-3.57,-4.99,-5.03,0,*59
1511625943.85,38552,7.75,72562.5,-3.57,-5.11,-5.15,0,*5C
1511625945.13,38553,7.75,72586.0,-3.59,-5.15,-5.15,0,*57
1511625946.38,38554,7.81,72618.8,-3.59,-4.99,-4.89,0,*51
1511625947.65,38555,7.75,72644.0,-3.59,-4.85,-4.89,0,*5D
1511625948.91,38556,7.75,72656.0,-3.59,-4.85,-4.77,0,*5F
1511625950.14,38557,7.75,72660.0,-3.59,-4.65,-4.61,0,*57
1511625951.34,38558,7.75,72690.5,-3.61,-4.57,-4.57,0,*57
1511625952.56,38559,7.75,72662.5,-3.59,-4.53,-4.49,0,*56
1511625953.79,38560,7.75,72668.0,-3.59,-4.61,-4.61,0,*57
1511625955.03,38561,7.81,72676.3,-3.61,-4.73,-4.77,0,*59
1511625956.3,38562,7.75,72696.8,-3.59,-4.77,-4.77,0,*55
1511625957.52,38563,7.75,72684.5,-3.59,-4.53,-4.61,0,*55
1511625958.72,38564,7.75,72682.5,-3.57,-4.49,-4.53,0,*56
1511625959.94,38565,7.75,72680.5,-3.59,-4.61,-4.61,0,*52
1511625961.19,38566,7.75,72702.3,-3.59,-4.73,-4.65,0,*56
1511625962.41,38567,7.75,72726.0,-3.59,-4.53,-4.53,0,*50
1511625963.64,38568,7.75,72710.3,-3.59,-4.53,-4.49,0,*54
1511625964.86,38569,7.75,72710.8,-3.57,-4.73,-4.61,0,*53
1511625966.1,38570,7.75,72712.5,-3.57,-4.73,-4.73,0,*58
1511625967.33,38571,7.75,72728.5,-3.59,-4.61,-4.65,0,*53
1511625968.53,38572,7.75,72716.0,-3.57,-4.49,-4.41,0,*52
1511625969.73,38573,7.75,72742.8,-3.57,-4.41,-4.41,0,*5B
1511625970.92,38574,7.75,72714.3,-3.57,-4.53,-4.49,0,*57
1511625972.12,38575,7.75,72686.0,-3.57,-4.49,-4.49,0,*5D
1511625973.34,38576,7.75,72696.0,-3.57,-4.73,-4.65,0,*59
1511625974.57,38577,7.75,72686.0,-3.57,-4.73,-4.61,0,*5C
1511625975.77,38578,7.75,72686.3,-3.57,-4.61,-4.65,0,*54
1511625976.99,38579,7.75,72688.0,-3.57,-4.65,-4.73,0,*56
1511625978.24,38580,7.75,72678.3,-3.59,-4.89,-4.99,0,*58
1511625979.52,38581,7.75,72700.8,-3.59,-5.81,-5.93,0,*5B
1511625980.72,38582,7.75,72702.5,-3.57,-6.01,-5.43,0,*50
1511625981.94,38583,7.75,72702.5,-3.57,-4.85,-4.61,0,*5E
1511625983.14,38584,7.75,72712.0,-3.57,-4.61,-4.65,0,*57
1511625984.34,38585,7.75,72718.3,-3.57,-4.61,-4.65,0,*56
1511625985.57,38586,7.75,72734.0,-3.55,-4.61,-4.57,0,*56
1511625986.76,38587,7.75,72712.0,-3.57,-4.49,-4.41,0,*58
1511625987.96,38588,7.75,72700.3,-3.57,-4.49,-4.49,0,*5F
1511625989.2,38589,7.75,72698.8,-3.57,-4.73,-4.73,0,*5E
1511625990.43,38590,7.75,72714.0,-3.57,-4.65,-4.73,0,*51
1511625991.63,38591,7.75,72666.0,-3.57,-4.61,-4.65,0,*53
1511625992.85,38592,7.75,72690.3,-3.55,-4.33,-4.33,0,*56
1511625994.09,38593,7.75,72654.8,-3.57,-4.01,-4.13,0,*56
1511625995.31,38594,7.75,72658.3,-3.55,-4.57,-4.49,0,*5F
1511625996.51,38595,7.75,72632.0,-3.57,-4.61,-4.61,0,*53
1511625997.76,38596,7.75,72608.8,-3.55,-4.61,-4.69,0,*5A
1511625998.98,38597,7.75,72602.0,-3.57,-4.99,-4.85,0,*5C
1511626000.22,38598,7.75,72658.5,-3.57,-4.77,-4.77,0,*5E
1511626001.44,38599,7.75,72684.5,-3.55,-4.61,-4.57,0,*58
1511626002.64,38600,7.75,72716.3,-3.57,-4.49,-4.45,0,*50
1511626003.85,38601,7.75,72724.8,-3.55,-4.37,-4.41,0,*5E
1511626005.08,38602,7.75,72700.3,-3.55,-4.57,-4.49,0,*53
1511626006.3,38603,7.75,72720.5,-3.55,-4.57,-4.49,0,*52
1511626007.51,38604,7.75,72670.8,-3.55,-4.49,-4.49,0,*5A
1511626008.74,38605,7.75,72714.5,-3.55,-4.57,-4.37,0,*5D
1511626009.94,38606,7.75,72720.8,-3.57,-4.41,-4.41,0,*5A
1511626011.15,38607,7.75,72760.0,-3.55,-4.37,-4.45,0,*5C
1511626012.37,38608,7.75,72628.0,-3.57,-4.73,-4.65,0,*53
1511626013.59,38609,7.75,72704.0,-3.55,-4.45,-4.37,0,*52
1511626014.79,38610,7.75,72646.5,-3.57,-4.41,-4.41,0,*5D
1511626016.01,38611,7.75,72700.0,-3.57,-4.73,-4.61,0,*5F
1511626017.28,38612,7.75,72574.8,-3.55,-4.81,-4.81,0,*5D
1511626018.53,38613,7.75,72612.5,-3.57,-4.85,-4.85,0,*5E
1511626019.79,38614,7.75,72592.8,-3.55,-4.81,-4.73,0,*56
1511626021.01,38615,7.75,72606.0,-3.55,-4.61,-4.61,0,*5A
1511626022.26,38616,7.75,72648.8,-3.57,-4.77,-4.77,0,*5B
1511626023.47,38617,7.75,72618.0,-3.55,-4.49,-4.45,0,*54
1511626024.69,38618,7.75,72606.5,-3.55,-4.57,-4.57,0,*57
1511626025.96,38619,7.75,72616.8,-3.55,-4.73,-4.73,0,*56
1511626027.16,38620,7.75,72610.5,-3.57,-4.61,-4.61,0,*5E
1511626028.37,38621,7.75,72592.8,-3.55,-4.49,-4.45,0,*51
1511626029.59,38622,7.75,72620.3,-3.57,-4.85,-4.65,0,*52
1511626030.81,38623,7.75,72624.8,-3.55,-4.61,-4.49,0,*55
1511626032.03,38624,7.75,72636.3,-3.55,-4.37,-4.37,0,*58
1511626033.24,38625,7.75,72622.0,-3.55,-4.45,-4.49,0,*55
1511626034.46,38626,7.75,72670.0,-3.55,-4.45,-4.37,0,*5F
1511626035.66,38627,7.75,72680.3,-3.57,-4.41,-4.49,0,*51
1511626036.86,38628,7.75,72712.8,-3.57,-4.41,-4.41,0,*56
1511626038.08,38629,7.75,72670.8,-3.55,-4.61,-4.57,0,*50
1511626039.28,38630,7.75,72648.8,-3.57,-4.61,-4.53,0,*5E
1511626040.48,38631,7.75,72686.5,-3.57,-4.41,-4.49,0,*56
1511626041.69,38632,7.75,72702.5,-3.55,-4.45,-4.45,0,*5F
1511626042.89,38633,7.75,72750.8,-3.57,-4.57,-4.49,0,*53
1511626044.11,38634,7.75,72780.3,-3.55,-4.49,-4.49,0,*59
1511626045.33,38635,7.75,72770.5,-3.55,-4.45,-4.37,0,*5D
1511626046.59,38636,7.75,72764.0,-3.55,-4.69,-4.69,0,*5B
1511626047.82,38637,7.75,72740.8,-3.55,-4.57,-4.61,0,*5F
1511626049.03,38638,7.75,72712.8,-3.55,-4.49,-4.49,0,*55
1511626050.26,38639,7.75,72690.5,-3.55,-4.21,-4.21,0,*54
1511626051.48,38640,7.75,72668.3,-3.55,-4.45,-4.37,0,*5F
1511626052.69,38641,7.75,72678.5,-3.55,-4.45,-4.45,0,*5B
1511626053.92,38642,7.75,72680.8,-3.55,-4.57,-4.57,0,*58
1511626055.11,38643,7.75,72690.5,-3.53,-4.57,-4.45,0,*5C
1511626056.31,38644,7.75,72690.0,-3.53,-4.37,-4.37,0,*58
1511626057.5,38645,7.75,72672.8,-3.53,-4.49,-4.45,0,*55
1511626058.73,38646,7.75,72658.5,-3.53,-4.61,-4.69,0,*52
1511626059.97,38647,7.75,72764.0,-3.53,-4.69,-4.69,0,*5B
1511626061.18,38648,7.75,72804.3,-3.53,-4.57,-4.57,0,*54
1511626062.38,38649,7.75,72628.3,-3.53,-4.57,-4.57,0,*55
1511626063.63,38650,7.75,72600.8,-3.55,-4.61,-4.69,0,*53
1511626064.9,38651,7.75,72686.3,-3.55,-4.69,-4.69,0,*5A
1511626066.11,38652,7.75,72686.8,-3.55,-4.49,-4.49,0,*59
1511626067.34,38653,7.75,72674.3,-3.55,-4.57,-4.57,0,*58
1511626068.56,38654,7.75,72598.0,-3.55,-3.83,-3.83,0,*5F
1511626069.78,38655,7.75,72688.8,-3.55,-4.45,-4.57,0,*5D
1511626070.99,38656,7.75,72760.0,-3.53,-4.57,-4.61,0,*5E
1511626072.17,38657,7.75,72726.3,-3.53,-4.45,-4.45,0,*5A
1511626073.36,38658,7.75,72730.0,-3.53,-4.45,-4.45,0,*55
1511626074.56,38659,7.75,72674.5,-3.53,-4.45,-4.37,0,*51
1511626075.75,38660,7.75,72690.5,-3.53,-4.37,-4.37,0,*5E
1511626076.95,38661,7.75,72740.3,-3.53,-4.37,-4.33,0,*5B
1511626078.17,38662,7.75,72680.8,-3.51,-4.41,-4.29,0,*50
1511626079.37,38663,7.75,72590.8,-3.53,-4.37,-4.33,0,*59
1511626080.59,38664,7.75,72604.8,-3.51,-4.29,-4.25,0,*54
1511626081.8,38665,7.75,72668.8,-3.53,-4.33,-4.41,0,*5E
1511626083.0,38666,7.75,72626.5,-3.53,-4.57,-4.57,0,*58
1511626084.25,38667,7.75,72686.0,-3.53,-4.73,-4.73,0,*59
1511626085.49,38668,7.75,72694.5,-3.53,-4.85,-4.93,0,*51
1511626086.75,38669,7.75,72658.3,-3.53,-5.23,-5.07,0,*51
1511626087.97,38670,7.75,72628.3,-3.53,-4.69,-4.57,0,*52
1511626089.22,38671,7.75,72614.0,-3.53,-4.85,-4.85,0,*5E
1511626090.46,38672,7.75,72626.8,-3.53,-4.81,-4.73,0,*50
1511626091.71,38673,7.75,72632.8,-3.53,-4.81,-4.81,0,*5C
1511626092.98,38674,7.75,72634.8,-3.51,-4.89,-4.85,0,*55
1511626094.23,38675,7.75,72632.0,-3.53,-4.69,-4.73,0,*51
1511626095.43,38676,7.75,72650.8,-3.53,-4.49,-4.57,0,*56
1511626096.67,38677,7.75,72648.8,-3.53,-4.69,-4.69,0,*58
1511626097.87,38678,7.75,72680.8,-3.53,-4.61,-4.49,0,*5D
1511626099.07,38679,7.75,72678.0,-3.53,-4.57,-4.49,0,*59
1511626100.28,38680,7.75,72716.3,-3.53,-4.57,-4.57,0,*50
1511626101.52,38681,7.75,72682.0,-3.53,-4.69,-4.69,0,*51
1511626102.74,38682,7.75,72656.3,-3.51,-4.53,-4.61,0,*51
1511626103.97,38683,7.75,72686.5,-3.51,-4.57,-4.53,0,*55
1511626105.17,38684,7.75,72710.8,-3.53,-4.49,-4.49,0,*54
1511626106.38,38685,7.75,72706.0,-3.51,-4.53,-4.45,0,*50
1511626107.6,38686,7.75,72690.3,-3.51,-4.41,-4.33,0,*51
1511626108.82,38687,7.75,72678.3,-3.51,-4.45,-4.41,0,*51
1511626110.04,38688,7.75,72726.3,-3.53,-4.69,-4.57,0,*55
1511626111.27,38689,7.75,72702.8,-3.51,-4.57,-4.57,0,*5B
1511626112.49,38690,7.75,72700.8,-3.53,-4.61,-4.69,0,*59
1511626113.77,38691,7.75,72706.5,-3.51,-4.89,-4.81,0,*5A
1511626115.0,38692,7.75,72708.8,-3.51,-4.65,-4.57,0,*50
1511626116.2,38693,7.75,72644.5,-3.53,-4.61,-4.57,0,*57
1511626117.45,38694,7.75,72646.3,-3.53,-4.73,-4.69,0,*5E